Time,TemperatureF,DewpointF,PressureIn,WindDirection,WindDirectionDegrees,WindSpeedMPH,WindSpeedGustMPH,Humidity,HourlyPrecipIn,Conditions,Clouds,dailyrainin,SoftwareType,DateUTC
2013-02-09 00:01:00,34.0,30.0,30.22,SSW,212,3.0,4.0,86,-99.99,,,-99.99,,2013-02-09 08:01:00,
2013-02-09 00:11:00,34.0,31.0,30.22,West,263,5.0,11.0,89,-99.99,,,-99.99,,2013-02-09 08:11:00,
2013-02-09 00:21:00,35.0,30.0,30.22,SW,220,3.0,4.0,82,-99.99,,,-99.99,,2013-02-09 08:21:00,
2013-02-09 00:31:00,34.0,31.0,30.22,West,281,3.0,11.0,87,-99.99,,,-99.99,,2013-02-09 08:31:00,
2013-02-09 00:41:00,35.0,32.0,30.22,West,268,8.0,14.0,85,-99.99,,,-99.99,,2013-02-09 08:41:00,
2013-02-09 00:52:00,38.0,31.0,30.22,West,275,9.0,14.0,78,-99.99,,,-99.99,,2013-02-09 08:52:00,
2013-02-09 01:02:00,38.0,32.0,30.22,West,280,8.0,13.0,78,-99.99,,,-99.99,,2013-02-09 09:02:00,
2013-02-09 01:11:00,38.0,32.0,30.22,West,278,7.0,11.0,78,-99.99,,,-99.99,,2013-02-09 09:11:00,
2013-02-09 01:21:00,37.0,30.0,30.21,West,262,5.0,11.0,77,-99.99,,,-99.99,,2013-02-09 09:21:00,
2013-02-09 01:31:00,36.0,30.0,30.21,SSW,195,2.0,4.0,76,-99.99,,,-99.99,,2013-02-09 09:31:00,
2013-02-09 01:41:00,34.0,30.0,30.21,SSW,213,2.0,4.0,85,-99.99,,,-99.99,,2013-02-09 09:41:00,
2013-02-09 01:51:00,32.0,30.0,30.21,SW,220,2.0,4.0,89,-99.99,,,-99.99,,2013-02-09 09:51:00,
2013-02-09 02:01:00,32.0,30.0,30.21,SSW,202,2.0,4.0,91,-99.99,,,-99.99,,2013-02-09 10:01:00,
2013-02-09 02:11:00,32.0,30.0,30.21,SW,232,3.0,4.0,93,-99.99,,,-99.99,,2013-02-09 10:11:00,
2013-02-09 02:21:00,32.0,31.0,30.21,SW,225,3.0,7.0,95,-99.99,,,-99.99,,2013-02-09 10:21:00,
2013-02-09 02:31:00,33.0,32.0,30.21,West,275,5.0,10.0,93,-99.99,,,-99.99,,2013-02-09 10:31:00,
2013-02-09 02:41:00,36.0,31.0,30.21,WNW,289,11.0,16.0,83,-99.99,,,-99.99,,2013-02-09 10:41:00,
2013-02-09 02:51:00,37.0,32.0,30.21,WNW,290,8.0,14.0,80,-99.99,,,-99.99,,2013-02-09 10:51:00,
2013-02-09 03:01:00,37.0,32.0,30.21,WNW,292,9.0,14.0,80,-99.99,,,-99.99,,2013-02-09 11:01:00,
2013-02-09 03:11:00,38.0,32.0,30.21,WNW,291,10.0,14.0,79,-99.99,,,-99.99,,2013-02-09 11:11:00,
2013-02-09 03:21:00,37.0,31.0,30.21,West,280,7.0,18.0,78,-99.99,,,-99.99,,2013-02-09 11:21:00,
2013-02-09 03:31:00,38.0,32.0,30.21,West,273,11.0,20.0,78,-99.99,,,-99.99,,2013-02-09 11:31:00,
2013-02-09 03:41:00,38.0,31.0,30.21,West,264,9.0,13.0,77,-99.99,,,-99.99,,2013-02-09 11:41:00,
2013-02-09 03:52:00,37.0,31.0,30.21,West,261,6.0,11.0,77,-99.99,,,-99.99,,2013-02-09 11:52:00,
2013-02-09 04:02:00,37.0,31.0,30.21,West,261,6.0,11.0,77,-99.99,,,-99.99,,2013-02-09 12:02:00,
2013-02-09 04:11:00,35.0,30.0,30.21,West,265,5.0,11.0,83,-99.99,,,-99.99,,2013-02-09 12:11:00,
2013-02-09 04:21:00,37.0,31.0,30.20,West,279,9.0,17.0,80,-99.99,,,-99.99,,2013-02-09 12:21:00,
2013-02-09 04:32:00,37.0,31.0,30.20,West,274,4.0,8.0,78,-99.99,,,-99.99,,2013-02-09 12:32:00,
2013-02-09 04:42:00,37.0,31.0,30.20,West,273,9.0,16.0,78,-99.99,,,-99.99,,2013-02-09 12:42:00,
2013-02-09 04:52:00,37.0,31.0,30.20,West,266,5.0,11.0,79,-99.99,,,-99.99,,2013-02-09 12:52:00,
2013-02-09 05:02:00,37.0,32.0,30.20,West,266,8.0,12.0,81,-99.99,,,-99.99,,2013-02-09 13:02:00,
2013-02-09 05:11:00,37.0,31.0,30.20,West,270,10.0,18.0,78,-99.99,,,-99.99,,2013-02-09 13:11:00,
2013-02-09 05:21:00,37.0,32.0,30.20,West,269,12.0,19.0,79,-99.99,,,-99.99,,2013-02-09 13:21:00,
2013-02-09 05:31:00,38.0,31.0,30.20,West,267,10.0,23.0,78,-99.99,,,-99.99,,2013-02-09 13:31:00,
2013-02-09 05:42:00,37.0,30.0,30.19,West,266,9.0,15.0,77,-99.99,,,-99.99,,2013-02-09 13:42:00,
2013-02-09 05:51:00,35.0,29.0,30.19,SSW,198,3.0,6.0,78,-99.99,,,-99.99,,2013-02-09 13:51:00,
2013-02-09 06:01:00,33.0,29.0,30.19,South,171,3.0,5.0,85,-99.99,,,-99.99,,2013-02-09 14:01:00,
2013-02-09 06:11:00,33.0,30.0,30.19,West,274,3.0,14.0,88,-99.99,,,-99.99,,2013-02-09 14:11:00,
2013-02-09 06:21:00,37.0,31.0,30.19,West,269,9.0,15.0,80,-99.99,,,-99.99,,2013-02-09 14:21:00,
2013-02-09 06:31:00,37.0,32.0,30.19,WSW,256,8.0,12.0,80,-99.99,,,-99.99,,2013-02-09 14:31:00,
2013-02-09 06:41:00,37.0,32.0,30.20,West,269,7.0,11.0,82,-99.99,,,-99.99,,2013-02-09 14:41:00,
2013-02-09 06:52:00,38.0,33.0,30.19,West,276,11.0,17.0,80,-99.99,,,-99.99,,2013-02-09 14:52:00,
2013-02-09 07:01:00,38.0,31.0,30.19,West,263,8.0,14.0,75,-99.99,,,-99.99,,2013-02-09 15:01:00,
2013-02-09 07:11:00,35.0,29.0,30.19,SW,224,3.0,4.0,79,-99.99,,,-99.99,,2013-02-09 15:11:00,
2013-02-09 07:21:00,33.0,30.0,30.20,NW,318,3.0,5.0,86,-99.99,,,-99.99,,2013-02-09 15:21:00,
2013-02-09 07:31:00,34.0,30.0,30.20,WSW,258,2.0,6.0,86,-99.99,,,-99.99,,2013-02-09 15:31:00,
2013-02-09 07:41:00,35.0,31.0,30.20,WSW,251,7.0,12.0,83,-99.99,,,-99.99,,2013-02-09 15:41:00,
2013-02-09 07:51:00,37.0,32.0,30.20,West,264,9.0,22.0,81,-99.99,,,-99.99,,2013-02-09 15:51:00,
2013-02-09 08:01:00,38.0,32.0,30.20,West,276,11.0,18.0,79,-99.99,,,-99.99,,2013-02-09 16:01:00,
2013-02-09 08:11:00,38.0,31.0,30.20,West,267,6.0,11.0,75,-99.99,,,-99.99,,2013-02-09 16:11:00,
2013-02-09 08:21:00,38.0,31.0,30.20,West,270,9.0,18.0,75,-99.99,,,-99.99,,2013-02-09 16:21:00,
2013-02-09 08:31:00,38.0,32.0,30.20,West,268,7.0,14.0,78,-99.99,,,-99.99,,2013-02-09 16:31:00,
2013-02-09 08:41:00,38.0,30.0,30.20,South,182,2.0,8.0,75,-99.99,,,-99.99,,2013-02-09 16:41:00,
2013-02-09 08:51:00,35.0,31.0,30.21,SW,221,3.0,6.0,82,-99.99,,,-99.99,,2013-02-09 16:51:00,
2013-02-09 09:01:00,38.0,32.0,30.21,West,272,10.0,19.0,79,-99.99,,,-99.99,,2013-02-09 17:01:00,
2013-02-09 09:11:00,39.0,32.0,30.21,WSW,252,8.0,17.0,77,-99.99,,,-99.99,,2013-02-09 17:11:00,
2013-02-09 09:21:00,39.0,33.0,30.21,West,267,8.0,16.0,79,-99.99,,,-99.99,,2013-02-09 17:21:00,
2013-02-09 09:32:00,39.0,33.0,30.21,West,272,9.0,17.0,79,-99.99,,,-99.99,,2013-02-09 17:32:00,
2013-02-09 09:41:00,40.0,33.0,30.21,West,265,8.0,14.0,77,-99.99,,,-99.99,,2013-02-09 17:41:00,
2013-02-09 09:52:00,40.0,33.0,30.21,WSW,256,8.0,16.0,77,-99.99,,,-99.99,,2013-02-09 17:52:00,
2013-02-09 10:01:00,40.0,34.0,30.21,West,272,10.0,16.0,77,-99.99,,,-99.99,,2013-02-09 18:01:00,
2013-02-09 10:11:00,41.0,33.0,30.20,West,259,13.0,20.0,72,-99.99,,,-99.99,,2013-02-09 18:11:00,
2013-02-09 10:23:00,41.0,33.0,30.20,West,263,11.0,23.0,73,-99.99,,,-99.99,,2013-02-09 18:23:00,
2013-02-09 10:31:00,41.0,34.0,30.20,West,267,15.0,24.0,74,-99.99,,,-99.99,,2013-02-09 18:31:00,
2013-02-09 10:41:00,42.0,34.0,30.20,West,268,14.0,23.0,73,-99.99,,,-99.99,,2013-02-09 18:41:00,
2013-02-09 10:51:00,42.0,34.0,30.21,West,260,12.0,21.0,71,-99.99,,,-99.99,,2013-02-09 18:51:00,
2013-02-09 11:01:00,42.0,33.0,30.21,WSW,256,12.0,23.0,69,-99.99,,,-99.99,,2013-02-09 19:01:00,
2013-02-09 11:11:00,43.0,33.0,30.21,WSW,257,12.0,21.0,67,-99.99,,,-99.99,,2013-02-09 19:11:00,
2013-02-09 11:22:00,44.0,33.0,30.21,West,265,13.0,27.0,66,-99.99,,,-99.99,,2013-02-09 19:22:00,
2013-02-09 11:31:00,44.0,32.0,30.21,West,269,11.0,19.0,63,-99.99,,,-99.99,,2013-02-09 19:31:00,
2013-02-09 11:41:00,45.0,33.0,30.21,West,261,11.0,22.0,64,-99.99,,,-99.99,,2013-02-09 19:41:00,
2013-02-09 11:52:00,45.0,32.0,30.21,West,259,9.0,15.0,62,-99.99,,,-99.99,,2013-02-09 19:52:00,
2013-02-09 12:01:00,45.0,33.0,30.21,WSW,258,10.0,23.0,62,-99.99,,,-99.99,,2013-02-09 20:01:00,
2013-02-09 12:11:00,45.0,33.0,30.21,West,259,10.0,18.0,61,-99.99,,,-99.99,,2013-02-09 20:11:00,
2013-02-09 12:21:00,45.0,33.0,30.21,West,267,9.0,18.0,62,-99.99,,,-99.99,,2013-02-09 20:21:00,
2013-02-09 12:31:00,45.0,34.0,30.20,WSW,250,10.0,19.0,62,-99.99,,,-99.99,,2013-02-09 20:31:00,
2013-02-09 12:41:00,46.0,34.0,30.19,West,271,10.0,20.0,63,-99.99,,,-99.99,,2013-02-09 20:41:00,
2013-02-09 12:52:00,46.0,34.0,30.19,West,265,12.0,21.0,62,-99.99,,,-99.99,,2013-02-09 20:52:00,
2013-02-09 13:01:00,46.0,34.0,30.19,West,263,13.0,20.0,63,-99.99,,,-99.99,,2013-02-09 21:01:00,
2013-02-09 13:11:00,46.0,34.0,30.19,West,261,10.0,18.0,62,-99.99,,,-99.99,,2013-02-09 21:11:00,
2013-02-09 13:21:00,45.0,34.0,30.19,West,266,12.0,22.0,63,-99.99,,,-99.99,,2013-02-09 21:21:00,
2013-02-09 13:31:00,45.0,34.0,30.19,West,266,13.0,24.0,64,-99.99,,,-99.99,,2013-02-09 21:31:00,
2013-02-09 13:41:00,45.0,34.0,30.18,WSW,258,12.0,20.0,64,-99.99,,,-99.99,,2013-02-09 21:41:00,
2013-02-09 13:52:00,45.0,34.0,30.18,WSW,249,10.0,22.0,65,-99.99,,,-99.99,,2013-02-09 21:52:00,
2013-02-09 14:01:00,45.0,34.0,30.18,WSW,249,10.0,22.0,65,-99.99,,,-99.99,,2013-02-09 22:01:00,
2013-02-09 14:11:00,45.0,34.0,30.18,WSW,254,11.0,21.0,63,-99.99,,,-99.99,,2013-02-09 22:11:00,
2013-02-09 14:21:00,45.0,34.0,30.18,WSW,256,12.0,22.0,64,-99.99,,,-99.99,,2013-02-09 22:21:00,
2013-02-09 14:31:00,45.0,34.0,30.17,West,261,12.0,21.0,63,-99.99,,,-99.99,,2013-02-09 22:31:00,
2013-02-09 14:41:00,45.0,34.0,30.17,WSW,254,11.0,18.0,64,-99.99,,,-99.99,,2013-02-09 22:41:00,
2013-02-09 14:51:00,45.0,34.0,30.17,WSW,255,14.0,24.0,64,-99.99,,,-99.99,,2013-02-09 22:51:00,
2013-02-09 15:01:00,45.0,34.0,30.17,West,262,13.0,23.0,65,-99.99,,,-99.99,,2013-02-09 23:01:00,
2013-02-09 15:11:00,45.0,34.0,30.17,West,260,8.0,16.0,65,-99.99,,,-99.99,,2013-02-09 23:11:00,
2013-02-09 15:21:00,45.0,34.0,30.18,WSW,255,10.0,20.0,65,-99.99,,,-99.99,,2013-02-09 23:21:00,
2013-02-09 15:31:00,45.0,34.0,30.18,WSW,258,13.0,23.0,64,-99.99,,,-99.99,,2013-02-09 23:31:00,
2013-02-09 15:41:00,45.0,34.0,30.18,West,261,13.0,24.0,65,-99.99,,,-99.99,,2013-02-09 23:41:00,
2013-02-09 15:52:00,45.0,34.0,30.18,West,260,12.0,18.0,67,-99.99,,,-99.99,,2013-02-09 23:52:00,
2013-02-09 16:02:00,45.0,34.0,30.18,WSW,258,16.0,25.0,66,-99.99,,,-99.99,,2013-02-10 00:02:00,
2013-02-09 16:11:00,45.0,34.0,30.18,West,261,13.0,24.0,67,-99.99,,,-99.99,,2013-02-10 00:11:00,
2013-02-09 16:21:00,45.0,34.0,30.18,WSW,256,11.0,23.0,66,-99.99,,,-99.99,,2013-02-10 00:21:00,
2013-02-09 16:32:00,45.0,34.0,30.18,WSW,254,13.0,21.0,66,-99.99,,,-99.99,,2013-02-10 00:32:00,
2013-02-09 16:41:00,45.0,34.0,30.18,West,268,12.0,22.0,66,-99.99,,,-99.99,,2013-02-10 00:41:00,
2013-02-09 16:51:00,44.0,34.0,30.18,West,268,10.0,16.0,67,-99.99,,,-99.99,,2013-02-10 00:51:00,
2013-02-09 17:01:00,44.0,35.0,30.19,West,260,10.0,15.0,69,-99.99,,,-99.99,,2013-02-10 01:01:00,
2013-02-09 17:11:00,44.0,35.0,30.19,WSW,255,8.0,14.0,69,-99.99,,,-99.99,,2013-02-10 01:11:00,
2013-02-09 17:21:00,44.0,34.0,30.19,West,261,11.0,19.0,69,-99.99,,,-99.99,,2013-02-10 01:21:00,
2013-02-09 17:31:00,44.0,35.0,30.19,WSW,257,11.0,20.0,70,-99.99,,,-99.99,,2013-02-10 01:31:00,
2013-02-09 17:41:00,44.0,35.0,30.19,WSW,257,11.0,20.0,70,-99.99,,,-99.99,,2013-02-10 01:41:00,
2013-02-09 17:51:00,43.0,35.0,30.20,West,265,11.0,18.0,72,-99.99,,,-99.99,,2013-02-10 01:51:00,
2013-02-09 18:01:00,43.0,35.0,30.20,WSW,257,10.0,16.0,73,-99.99,,,-99.99,,2013-02-10 02:01:00,
2013-02-09 18:11:00,43.0,35.0,30.21,West,266,8.0,15.0,74,-99.99,,,-99.99,,2013-02-10 02:11:00,
2013-02-09 18:22:00,43.0,36.0,30.21,West,260,10.0,16.0,75,-99.99,,,-99.99,,2013-02-10 02:22:00,
2013-02-09 18:31:00,43.0,36.0,30.21,West,259,11.0,20.0,74,-99.99,,,-99.99,,2013-02-10 02:31:00,
2013-02-09 18:41:00,43.0,36.0,30.21,West,259,10.0,18.0,74,-99.99,,,-99.99,,2013-02-10 02:41:00,
2013-02-09 18:52:00,43.0,35.0,30.21,West,261,10.0,18.0,72,-99.99,,,-99.99,,2013-02-10 02:52:00,
2013-02-09 19:01:00,43.0,35.0,30.22,WSW,258,7.0,15.0,72,-99.99,,,-99.99,,2013-02-10 03:01:00,
2013-02-09 19:11:00,43.0,35.0,30.22,WSW,253,6.0,11.0,73,-99.99,,,-99.99,,2013-02-10 03:11:00,
2013-02-09 19:21:00,43.0,35.0,30.22,WSW,254,10.0,18.0,73,-99.99,,,-99.99,,2013-02-10 03:21:00,
2013-02-09 19:32:00,43.0,35.0,30.21,WSW,258,8.0,14.0,73,-99.99,,,-99.99,,2013-02-10 03:32:00,
2013-02-09 19:41:00,43.0,35.0,30.22,WSW,250,7.0,16.0,73,-99.99,,,-99.99,,2013-02-10 03:41:00,
2013-02-09 19:51:00,43.0,35.0,30.21,WSW,248,8.0,14.0,74,-99.99,,,-99.99,,2013-02-10 03:51:00,
2013-02-09 20:01:00,42.0,35.0,30.21,WSW,253,7.0,15.0,75,-99.99,,,-99.99,,2013-02-10 04:01:00,
2013-02-09 20:11:00,42.0,35.0,30.21,WSW,249,6.0,12.0,77,-99.99,,,-99.99,,2013-02-10 04:11:00,
2013-02-09 20:21:00,43.0,36.0,30.21,WSW,245,8.0,15.0,77,-99.99,,,-99.99,,2013-02-10 04:21:00,
2013-02-09 20:32:00,43.0,36.0,30.21,WSW,253,7.0,11.0,77,-99.99,,,-99.99,,2013-02-10 04:32:00,
2013-02-09 20:41:00,42.0,35.0,30.21,WSW,244,7.0,12.0,76,-99.99,,,-99.99,,2013-02-10 04:41:00,
2013-02-09 20:51:00,42.0,35.0,30.21,WSW,247,5.0,10.0,76,-99.99,,,-99.99,,2013-02-10 04:51:00,
2013-02-09 21:01:00,42.0,36.0,30.21,SW,223,5.0,10.0,76,-99.99,,,-99.99,,2013-02-10 05:01:00,
2013-02-09 21:11:00,42.0,35.0,30.22,SW,221,4.0,8.0,76,-99.99,,,-99.99,,2013-02-10 05:11:00,
2013-02-09 21:22:00,42.0,35.0,30.22,WSW,248,5.0,11.0,76,-99.99,,,-99.99,,2013-02-10 05:22:00,
2013-02-09 21:31:00,42.0,35.0,30.22,WSW,247,6.0,12.0,76,-99.99,,,-99.99,,2013-02-10 05:31:00,
2013-02-09 21:41:00,42.0,35.0,30.22,WSW,252,5.0,11.0,76,-99.99,,,-99.99,,2013-02-10 05:41:00,
2013-02-09 21:52:00,42.0,36.0,30.23,WSW,256,6.0,11.0,78,-99.99,,,-99.99,,2013-02-10 05:52:00,
2013-02-09 22:01:00,42.0,36.0,30.23,WSW,240,5.0,11.0,79,-99.99,,,-99.99,,2013-02-10 06:01:00,
2013-02-09 22:11:00,42.0,36.0,30.23,WSW,248,5.0,10.0,78,-99.99,,,-99.99,,2013-02-10 06:11:00,
2013-02-09 22:21:00,42.0,36.0,30.24,WSW,243,6.0,10.0,78,-99.99,,,-99.99,,2013-02-10 06:21:00,
2013-02-09 22:32:00,42.0,36.0,30.24,WSW,254,5.0,8.0,77,-99.99,,,-99.99,,2013-02-10 06:32:00,
2013-02-09 22:42:00,42.0,35.0,30.24,WSW,257,6.0,9.0,78,-99.99,,,-99.99,,2013-02-10 06:42:00,
2013-02-09 22:51:00,42.0,36.0,30.25,West,268,6.0,10.0,79,-99.99,,,-99.99,,2013-02-10 06:51:00,
2013-02-09 23:01:00,42.0,36.0,30.25,West,278,6.0,11.0,79,-99.99,,,-99.99,,2013-02-10 07:01:00,
2013-02-09 23:11:00,42.0,37.0,30.25,WNW,283,6.0,9.0,80,-99.99,,,-99.99,,2013-02-10 07:11:00,
2013-02-09 23:21:00,42.0,36.0,30.25,West,280,9.0,14.0,80,-99.99,,,-99.99,,2013-02-10 07:21:00,
2013-02-09 23:31:00,41.0,36.0,30.25,WNW,288,8.0,13.0,80,-99.99,,,-99.99,,2013-02-10 07:31:00,
2013-02-09 23:41:00,41.0,36.0,30.26,WSW,246,4.0,8.0,81,-99.99,,,-99.99,,2013-02-10 07:41:00,
2013-02-09 23:51:00,41.0,36.0,30.26,West,276,5.0,9.0,82,-99.99,,,-99.99,,2013-02-10 07:51:00,